カタログに戻る

STARLINK-36127

運用中通信VLEO
NORAD 66935·PAYLOAD·🇺🇸 United States

打ち上げ Dec 7, 2025 から Vandenberg Space Force Base

Loading…

次のパス (今後24時間)

TLE

最新Source: CelesTrak SupGP

元期: Sep 14, 2026, 23:00 UTC

1 66935C 25286L   26257.95881944 -.00071948  00000+0 -21197-2 0  2571
2 66935  53.1576 195.4004 0001046  89.9208 137.2640 15.34515562    19

AllMySatでSTARLINK-36127をリアルタイム追跡

Download on the App Store